User: anonymous   Login
Location: Unspecified
(0.0000°N, 0.0000°E)
Time: 11:23:10
(UTC+00:00)
Language:

USA 247 - Orbit

View from above orbital plane
View from above orbital plane
View from above satellite
View from above satellite

Ground track
Ground track

The orbit data is extracted from the following two-line orbital elements,

1 39462U 13072A   17145.09017451 0.00000000  00000-0  00000-0 0    05
2 39462 122.9997 193.6441 0008000 216.5301 143.4699 13.41418831    09
Epoch (UTC): 25 May 2017 02:09:51
Eccentricity: 0.0008000
inclination: 122.9997°
perigee height: 1098 km
apogee height: 1110 km
right ascension of ascending node: 193.6441°
argument of perigee: 216.5301°
revolutions per day: 13.41418831
mean anomaly at epoch: 143.4699°
orbit number at epoch: 0

The dashed part of the orbit path shows where the satellite is in the earth's shadow,  

DLR